カタログに戻る

STARLINK-6147

運用中通信VLEO
NORAD 57120·PAYLOAD·🇺🇸 United States

打ち上げ Jun 23, 2023 から Cape Canaveral Space Force Station

Loading…

次のパス (今後24時間)

TLE

最新Source: CelesTrak SupGP

元期: Sep 15, 2026, 02:00 UTC

1 57120C 23090V   26258.08381944  .00017170  00000+0  62187-3 0  2589
2 57120  42.9996 291.8677 0001345 264.0464 280.7744 15.27570874    14

AllMySatでSTARLINK-6147をリアルタイム追跡

Download on the App Store